Location: Handeloh
(53.2500°N, 9.8330°E)
Time: 07:56:26
(UTC+01:00)

N. Korean satellite - Visible Passes

Search period start: 18 February 2019 00:00
Search period end: 28 February 2019 00:00
Orbit: 457 x 510 km, 97.2° (Epoch: 17 February)

Date Brightness Start Highest point End Pass type
(mag) Time Alt. Az. Time Alt. Az. Time Alt. Az.
18 Feb 7.8 06:23:57 10° NNE 06:27:20 45° E 06:30:40 10° S visible
18 Feb 9.9 18:39:53 10° SW 18:42:30 18° W 18:45:07 10° NW visible
19 Feb 9.1 05:59:31 10° NE 06:02:28 25° E 06:05:22 10° SSE visible
19 Feb 8.9 18:14:17 10° SSW 18:17:36 31° W 18:20:53 10° NNW visible
20 Feb 10.0 05:35:33 10° NE 05:37:30 14° E 05:39:26 10° ESE visible
21 Feb 6.7 06:43:05 10° NNE 06:46:35 77° ESE 06:50:01 10° S visible
21 Feb 10.4 19:00:29 10° WSW 19:01:54 12° W 19:03:20 10° WNW visible
22 Feb 8.1 06:18:28 10° NNE 06:21:46 39° E 06:25:01 10° S visible
22 Feb 9.8 18:34:09 10° SW 18:36:56 20° W 18:39:42 10° NW visible
23 Feb 9.3 05:54:05 10° NE 05:56:52 22° E 05:59:36 10° SE visible
24 Feb 10.1 05:30:19 10° ENE 05:31:53 12° E 05:33:26 10° ESE visible
25 Feb 7.0 06:37:32 10° NNE 06:41:00 66° ESE 06:44:24 10° S visible
25 Feb 10.2 18:54:30 10° WSW 18:56:17 13° W 18:58:05 10° WNW visible
26 Feb 8.4 06:12:57 10° NNE 06:16:09 34° E 06:19:19 10° SSE visible
26 Feb 9.6 18:28:26 10° SSW 18:31:19 22° W 18:34:12 10° NW visible
27 Feb 9.6 05:48:39 10° NE 05:51:14 19° E 05:53:47 10° SE visible
